Location: Saint-Restitut
(44.3351°N, 4.7915°E)
Time: 02:42:58
(UTC+00:00)

Cosmos 407 Rocket - Pass Details

Date: 03 February 2023
Orbit: 742 x 785 km, 74.0° (Epoch: 27 March)

Event Time Altitude Azimuth Distance (km) Brightness Sun altitude
Rises 17:12:20 0° 198° (SSW) 3,191 7.3 -4.1°
Reaches altitude 10° 17:14:41 10° 198° (SSW) 2,265 6.5 -4.5°
Maximum altitude 17:19:49 88° 110° (ESE) 753 3.5 -5.4°
Drops below altitude 10° 17:24:58 10° 21° (NNE) 2,265 5.6 -6.3°
Sets 17:27:19 0° 22° (NNE) 3,192 6.3 -6.7°
